Notices

What's New in latest Release from April 7th, 2021:

- Updated Glossary, including Speed of Maximum Gust, and Total Hourly Precipitation

- Updated national and regional climate services offices contacts and prices information

- Addition of station inventory lists for 1981-2010, 1971-2000, and 1961-1990 Normals.

If you haven't already, please take our survey and provide feedback about our website: https://eccc.sondage-survey.ca/f/LanguageSelection.aspx?s=442ca660-fcf1-47c0-95a9-59707d6fd709

Hourly Data Report for March 27, 2006

TORONTO CITY
ONTARIO

43°40'00.000" N
79°24'00.000" W
112.50 m
6158355
71508
XTO

Download Data

Hourly Data (March 2006)
Hourly Data Report for March 27, 2006
TIME
LST
Temp Definition
°C
Dew Point Definition
°C
Rel Hum Definition
%
Precip. Amount Definition
mm

Wind Dir Definition
10's deg

Wind Spd Definition
km/h
Visibility Definition
km
Stn Press Definition
kPa
Hmdx Definition


Wind Chill Definition


Weather Definition


00:00 2.8 -7.0 48   LegendMM LegendMM   100.90     LegendNANA
01:00 2.6 -7.2 48   LegendMM LegendMM   100.93     LegendNANA
02:00 2.2 -7.2 50   LegendMM LegendMM   100.94     LegendNANA
03:00 2.0 -7.0 51   LegendMM LegendMM   100.94     LegendNANA
04:00 2.1 -6.8 52   LegendMM LegendMM   100.95     LegendNANA
05:00 1.8 -6.8 53   LegendMM LegendMM   100.99     LegendNANA
06:00 1.3 -6.3 57   LegendMM LegendMM   101.03     LegendNANA
07:00 2.0 -5.9 56   LegendMM LegendMM   101.11     LegendNANA
08:00 4.0 -5.5 50   LegendMM LegendMM   101.14     LegendNANA
09:00 5.5 -5.4 45   LegendMM LegendMM   101.15     LegendNANA
10:00 8.4 -4.9 39   LegendMM LegendMM   101.13     LegendNANA
11:00 8.0 -2.3 48   LegendMM LegendMM   101.11     LegendNANA
12:00 7.5 -2.6 49   LegendMM LegendMM   101.09     LegendNANA
13:00 8.6 -2.8 45   LegendMM LegendMM   101.06     LegendNANA
14:00 9.6 -4.3 37   LegendMM LegendMM   101.01     LegendNANA
15:00 10.1 -6.9 30   LegendMM LegendMM   100.95     LegendNANA
16:00 10.3 -7.8 27   LegendMM LegendMM   100.88     LegendNANA
17:00 9.9 -6.5 31   LegendMM LegendMM   100.82     LegendNANA
18:00 8.5 -3.5 43   LegendMM LegendMM   100.84     LegendNANA
19:00 7.5 -1.1 54   LegendMM LegendMM   100.85     LegendNANA
20:00 8.2 -5.2 38   LegendMM LegendMM   100.89     LegendNANA
21:00 7.5 -5.0 41   LegendMM LegendMM   100.92     LegendNANA
22:00 6.5 -5.4 42   LegendMM LegendMM   100.93     LegendNANA
23:00 5.6 -5.5 45   LegendMM LegendMM   100.89     LegendNANA

Notes on Data Quality.

Legend

  • E = Estimated
  • M = Missing
  • NA = Not Available*
  • [empty] = Indicates an unobserved value
Date modified: